Regional Weather Roundup
Issued by NWS

Home | Current Version | Previous Version | Graphics & Text | Print | Product List | Glossary On
Versions: 1 2 3 4 5 6 7 8 9 10 11 12 13 14 15 16 17 18 19 20 21 22 23 24 25 26 27 28 29 30 31 32 33 34 35 36 37 38 39 40 41 42 43 44 45 46 47 48 49 50
031
ASUS44 KJAN 020010
RWRMS

MISSISSIPPI HOURLY WEATHER ROUNDUP
NATIONAL WEATHER SERVICE JACKSON MS
600 PM CST SUN MAR 01 2015

NOTE: "FAIR: INDICATES FEW OR NO CLOUDS BELOW 12,000 FEET WITH NO
SIGNIFICANT WEATHER AND/OR OBSTRUCTIONS TO VISIBILITY.

MSZ001>002-007>008-010>013-018>021-025>028-034>036-020100-
NORTHWEST MISSISSIPPI

CITY           SKY/WX    TMP DP  RH WIND       PRES   REMARKS
CLARKSDALE     CLOUDY    41  41 100 N10       30.33R VSB 1/2
CLEVELAND      DRIZZLE   44  44 100 N7        30.30S
GREENWOOD        N/A    N/A N/A N/A MISG      30.28R
GREENVILLE     LGT RAIN  44  42  93 N9        30.29S FOG
6HR MIN TEMP:  40; 6HR MAX TEMP:  44; 6HR PCP:  0.11;

OLIVE BRANCH   LGT RAIN  43  43 100 N6        30.32R FOG
OXFORD         CLOUDY    50  50 100 CALM      30.31S FOG
TUNICA         RAIN      41  39  93 N7        30.34R
$$

MSZ003>006-009-014>017-022>024-029>033-037>039-020100-
NORTHEAST MISSISSIPPI

CITY           SKY/WX    TMP DP  RH WIND       PRES   REMARKS
COLUMBUS AFB   NOT AVBL
CORINTH        RAIN      52  50  93 CALM      30.30R
GOLDN TRIANGLE CLOUDY    54  50  87 S8        30.28F
STARKVILLE     CLOUDY    54  52  94 S6        30.30R
TUPELO         CLOUDY    53  52  96 CALM      30.30R
6HR MIN TEMP:  51; 6HR MAX TEMP:  53; 6HR PCP:  0.40;

$$

MSZ040-058-020100-
CENTRAL MISSISSIPPI

CITY           SKY/WX    TMP DP  RH WIND       PRES   REMARKS
JACKSON INTL   CLOUDY    59  57  93 S10       30.27R
6HR MIN TEMP:  57; 6HR MAX TEMP:  59; 6HR PCP:  0.82;

JACKSON HAWKNS CLOUDY    59  57  93 SE7       30.27S
6HR MIN TEMP:  57; 6HR MAX TEMP:  59; 6HR PCP:  1.00;

MERIDIAN KEY   LGT RAIN  54  54 100 SE6       30.30F
6HR MIN TEMP:  54; 6HR MAX TEMP:  57; 6HR PCP:  0.43;

MERIDIAN NAS   RAIN      54  53  97 SE9       30.30F FOG
6HR MIN TEMP:  54; 6HR MAX TEMP:  58; 6HR PCP:  0.28;

VICKSBURG      CLOUDY    56  54  93 NW7       30.27R FOG
6HR MIN TEMP:  56; 6HR MAX TEMP:  59; 6HR PCP:  0.12;

$$

MSZ059>079-020100-
SOUTH MISSISSIPPI

CITY           SKY/WX    TMP DP  RH WIND       PRES   REMARKS
BROOKHAVEN     LGT RAIN  59  59 100 E5        30.30R
HATTIESBURG    CLOUDY    61  58  90 NE5       30.30R
6HR MIN TEMP:  61; 6HR MAX TEMP:  64; 6HR PCP:  0.04;

MCCOMB         HVY RAIN  62  61  96 NE12      30.25S VSB 3/4
6HR MIN TEMP:  60; 6HR MAX TEMP:  64; 6HR PCP:  0.85;

NATCHEZ        CLOUDY    63  61  94 S10       30.24R
6HR MIN TEMP:  61; 6HR MAX TEMP:  63; 6HR PCP:  0.71;

PINE BELT      CLOUDY    59  55  88 NE6       30.32R
6HR MIN TEMP:  59; 6HR MAX TEMP:  61;

$$

MSZ080>082-020100-
COASTAL MISSISSIPPI

CITY           SKY/WX    TMP DP  RH WIND       PRES   REMARKS
BILOXI         CLOUDY    60  60 100 E6        30.28R
6HR MIN TEMP:  57; 6HR MAX TEMP:  62;

PASCAGOULA     CLOUDY    59  57  93 E5        30.29S FOG
6HR MIN TEMP:  57; 6HR MAX TEMP:  60;

GULFPORT       CLOUDY    61  59  93 E9        30.28R
6HR MIN TEMP:  58; 6HR MAX TEMP:  63;

$$



USA.gov is the U.S. government's official web portal to all federal, state and local government web resources and services.